STARLINK-34626, 65082

Orbit data source: Space-Track

STARLINK-34626, 65082 is a payload satellite owned by SpaceX/Seattle (US) in LEO that was launched on Mon, 04 Aug 2025 UTC via an FALCON 9 launch vehicle from the Air Force Eastern Test Range (AFETR). Payload-class satellites include a variety of spacecraft equipped with specific instruments for various scientific and technological missions. These include communications satellites like Starlink; space stations such as the ISS; scientific satellites like the Hubble; Earth observation satellites from companies like Planet Labs, Umbra, and HawkEye 360; GPS; miniature CubeSats for education and research; and military/defense satellites.

Loading next visibility...
Identifier
65082, 2025-167E
Orbit
LEO
Country
Flag of USUS
Related business
Manufacturer
SpaceX/Seattle
Mission
Operational Commercial Communications
Bus & Motor
STARLINK V2MO, Unknown motor
Mass
575 kg wet, ~530 kg dry
Launch date (UTC)
2025-08-04 (11 months ago)
Launch vehicle
FALCON 9
Launch site
Air Force Eastern Test Range (AFETR)
Object type
Payload
Rocket body
Debris
Shape & HBR
Box + 2 Pan, 17.7 m
Radar Cross Section
36.964 m², Large (>1 m²)

Expand to show TLE details & history
Last TLE update: 17 hours ago

TLE from 17 hours ago
0 STARLINK-34626
1 65082U 25167E   26174.50446341  .00018596  00000-0  55997-3 0  9996
2 65082  53.1582 250.0495 0000868  90.3588 269.7514 15.34409625 49755
Epoch: 2026-06-23T12:06Z
TLE epoch observation values (Epoch: 2026-06-23T12:06:25.638Z)
Latitude
-0.00003°
Longitude
156.76757°
Altitude
463.578 km
Speed
7.636 km/s
True Right ascension
16h 40m 11s
True Declination
0° 00' 00"
Sunlit
Object was in full shadow at epoch
Visualization orbit readout
Latitude
Unknown
Longitude
Unknown
Altitude
Unknown
Speed
Unknown
Apparent Right ascension
Unknown
Apparent Declination
Unknown
Sunlit
N/A
Visualization observer readout
Local Sidereal Time
16:39:21
Azimuth
Unknown
Elevation
Unknown
Doppler factor
Unknown
Orbital elements
Apogee altitude
463.526 km
Perigee altitude
462.338 km
Semi-major axis
6,841.069 km
Eccentricity
0.00009
Inclination
53.1582°
RAAN
250.0495°
Arg. of periapsis
90.3588°
True anomaly
269.74145°
Mean anomaly
269.7514°
Eccentric anomaly
269.74643°
Mean motion
3.83581 °/min
Orbital period
93.85 mins
BSTAR
0.00055997
Loading maneuver chart data...
Computing Atmospheric mass density...
Loading historical data...
Loading historical data...
Loading historical data...
Loading historical data...
Loading historical data...
Loading historical data...
Loading historical data...

Documentation

Showing up to 5 results
|